When you browse on this site, cookies collect data to enhance your experience and personalize the content and advertising you see.
Visit our Privacy Policy to learn more. By continuing to use the site, you agree to this use of cookies and data.

Stündliche Wetter Sewan

Heute, 18 September, Freitag

Zeit Temperatur Niederschläge Wind Luftdruck Luftfeuchtigkeit
00:00 +17°C° 0.1 mm 2 m/S 645 mmHg 68%
01:00 +17°C° 0 mm 2 m/S 645 mmHg 69%
02:00 +18°C° 0 mm 1 m/S 644 mmHg 70%
03:00 +18°C° 0 mm 1 m/S 644 mmHg 72%
04:00 +18°C° 0 mm 1 m/S 644 mmHg 72%
05:00 +16°C° 0 mm 1 m/S 643 mmHg 72%
06:00 +16°C° 0 mm 1 m/S 643 mmHg 72%
07:00 +19°C° 0 mm 1 m/S 644 mmHg 63%
08:00 +21°C° 0 mm 2 m/S 644 mmHg 55%
09:00 +24°C° 0 mm 2 m/S 644 mmHg 46%
10:00 +25°C° 0 mm 2 m/S 645 mmHg 41%
11:00 +27°C° 0 mm 3 m/S 645 mmHg 35%
12:00 +28°C° 0 mm 3 m/S 645 mmHg 29%
13:00 +29°C° 0 mm 3 m/S 645 mmHg 26%
14:00 +29°C° 0 mm 3 m/S 644 mmHg 22%
15:00 +30°C° 0 mm 3 m/S 644 mmHg 19%
16:00 +28°C° 0 mm 2 m/S 643 mmHg 23%
17:00 +26°C° 0 mm 2 m/S 643 mmHg 28%
18:00 +24°C° 0 mm 1 m/S 642 mmHg 32%
19:00 +23°C° 0 mm 2 m/S 642 mmHg 39%
20:00 +21°C° 0 mm 3 m/S 642 mmHg 45%
21:00 +20°C° 0 mm 3 m/S 642 mmHg 52%
22:00 +19°C° 0 mm 3 m/S 642 mmHg 53%
23:00 +19°C° 0 mm 3 m/S 642 mmHg 53%

Morgen, 19 September, Samstag

Zeit Temperatur Niederschläge Wind Luftdruck Luftfeuchtigkeit
00:00 +18°C° 0 mm 2 m/S 642 mmHg 54%
01:00 +18°C° 0 mm 2 m/S 641 mmHg 54%
02:00 +17°C° 0 mm 2 m/S 641 mmHg 54%
03:00 +17°C° 0 mm 2 m/S 641 mmHg 54%
04:00 +17°C° 0 mm 2 m/S 641 mmHg 53%
05:00 +16°C° 0 mm 1 m/S 641 mmHg 53%
06:00 +16°C° 0 mm 1 m/S 641 mmHg 52%
07:00 +20°C° 0 mm 1 m/S 641 mmHg 45%
08:00 +21°C° 0 mm 2 m/S 642 mmHg 38%
09:00 +25°C° 0 mm 2 m/S 643 mmHg 30%
10:00 +26°C° 0 mm 2 m/S 643 mmHg 28%
11:00 +27°C° 0 mm 3 m/S 643 mmHg 26%
12:00 +28°C° 0 mm 3 m/S 643 mmHg 24%
13:00 +28°C° 0 mm 4 m/S 643 mmHg 24%
14:00 +28°C° 0 mm 4 m/S 642 mmHg 24%
15:00 +28°C° 0 mm 5 m/S 642 mmHg 24%
16:00 +26°C° 0 mm 4 m/S 642 mmHg 31%
17:00 +23°C° 0 mm 4 m/S 641 mmHg 38%
18:00 +21°C° 0 mm 4 m/S 641 mmHg 45%
19:00 +20°C° 0 mm 3 m/S 641 mmHg 47%
20:00 +19°C° 0 mm 3 m/S 641 mmHg 49%
21:00 +18°C° 0 mm 2 m/S 641 mmHg 52%
22:00 +18°C° 0 mm 2 m/S 642 mmHg 52%
23:00 +17°C° 0 mm 2 m/S 642 mmHg 53%

übermorgen, 20 September, Sonntag

Zeit Temperatur Niederschläge Wind Luftdruck Luftfeuchtigkeit
00:00 +16°C° 0 mm 1 m/S 642 mmHg 54%
01:00 +16°C° 0 mm 1 m/S 642 mmHg 56%
02:00 +16°C° 0 mm 1 m/S 642 mmHg 57%
03:00 +15°C° 0 mm 1 m/S 642 mmHg 59%
04:00 +15°C° 0 mm 1 m/S 642 mmHg 61%
05:00 +14°C° 0 mm 1 m/S 642 mmHg 63%
06:00 +14°C° 0 mm 1 m/S 642 mmHg 65%
07:00 +16°C° 0 mm 2 m/S 643 mmHg 59%
08:00 +18°C° 0 mm 2 m/S 643 mmHg 54%
09:00 +20°C° 0 mm 2 m/S 644 mmHg 48%
10:00 +21°C° 0 mm 2 m/S 644 mmHg 45%
11:00 +23°C° 0 mm 2 m/S 644 mmHg 41%
12:00 +25°C° 0 mm 3 m/S 644 mmHg 38%
13:00 +25°C° 0 mm 3 m/S 644 mmHg 36%
14:00 +26°C° 0 mm 3 m/S 643 mmHg 34%
15:00 +26°C° 0 mm 2 m/S 643 mmHg 33%
16:00 +24°C° 0 mm 3 m/S 642 mmHg 41%
17:00 +21°C° 0 mm 3 m/S 642 mmHg 50%
18:00 +19°C° 0 mm 3 m/S 641 mmHg 59%
19:00 +18°C° 0 mm 3 m/S 642 mmHg 61%
20:00 +17°C° 0 mm 3 m/S 642 mmHg 63%
21:00 +15°C° 0 mm 4 m/S 642 mmHg 65%
22:00 +15°C° 0 mm 4 m/S 642 mmHg 66%
23:00 +16°C° 0 mm 3 m/S 642 mmHg 67%

21 September, Montag

Zeit Temperatur Niederschläge Wind Luftdruck Luftfeuchtigkeit
00:00 +14°C° 0 mm 3 m/S 642 mmHg 68%
01:00 +14°C° 0 mm 3 m/S 642 mmHg 70%
02:00 +14°C° 0 mm 3 m/S 642 mmHg 71%
03:00 +15°C° 0 mm 2 m/S 642 mmHg 72%
04:00 +14°C° 0 mm 2 m/S 642 mmHg 74%
05:00 +14°C° 0 mm 2 m/S 642 mmHg 75%
06:00 +14°C° 0 mm 2 m/S 643 mmHg 77%
07:00 +16°C° 0 mm 2 m/S 643 mmHg 70%
08:00 +18°C° 0 mm 2 m/S 644 mmHg 64%
09:00 +20°C° 0 mm 2 m/S 645 mmHg 57%
10:00 +21°C° 0.2 mm 2 m/S 645 mmHg 53%
11:00 +23°C° 0.2 mm 2 m/S 645 mmHg 48%
12:00 +24°C° 0.2 mm 3 m/S 645 mmHg 44%
13:00 +25°C° 0.1 mm 3 m/S 645 mmHg 43%
14:00 +25°C° 0.1 mm 3 m/S 645 mmHg 42%
15:00 +25°C° 0.1 mm 3 m/S 644 mmHg 42%
16:00 +24°C° 0.1 mm 3 m/S 644 mmHg 49%
17:00 +21°C° 0.1 mm 4 m/S 643 mmHg 56%
18:00 +19°C° 0.1 mm 4 m/S 643 mmHg 64%
19:00 +18°C° 0 mm 4 m/S 643 mmHg 65%
20:00 +17°C° 0 mm 4 m/S 643 mmHg 67%
21:00 +17°C° 0 mm 4 m/S 643 mmHg 69%
22:00 +16°C° 0.1 mm 3 m/S 643 mmHg 70%
23:00 +16°C° 0.1 mm 3 m/S 643 mmHg 71%

22 September, Dienstag

Zeit Temperatur Niederschläge Wind Luftdruck Luftfeuchtigkeit
00:00 +16°C° 0.1 mm 2 m/S 643 mmHg 72%
01:00 +15°C° 0 mm 2 m/S 642 mmHg 73%
02:00 +15°C° 0 mm 2 m/S 642 mmHg 74%
03:00 +15°C° 0 mm 2 m/S 642 mmHg 75%
04:00 +15°C° 0 mm 2 m/S 642 mmHg 75%
05:00 +14°C° 0 mm 2 m/S 642 mmHg 75%
06:00 +14°C° 0 mm 1 m/S 642 mmHg 75%
07:00 +16°C° 0 mm 1 m/S 643 mmHg 67%
08:00 +20°C° 0 mm 1 m/S 643 mmHg 59%
09:00 +21°C° 0 mm 2 m/S 644 mmHg 51%
10:00 +23°C° 0 mm 2 m/S 644 mmHg 45%
11:00 +25°C° 0 mm 2 m/S 644 mmHg 40%
12:00 +26°C° 0 mm 3 m/S 644 mmHg 34%
13:00 +27°C° 0 mm 3 m/S 644 mmHg 33%
14:00 +27°C° 0 mm 2 m/S 644 mmHg 31%
15:00 +28°C° 0 mm 2 m/S 643 mmHg 29%
16:00 +26°C° 0.1 mm 2 m/S 643 mmHg 36%
17:00 +24°C° 0.1 mm 2 m/S 642 mmHg 43%
18:00 +20°C° 0.1 mm 2 m/S 642 mmHg 51%
19:00 +20°C° 0.1 mm 3 m/S 642 mmHg 55%
20:00 +19°C° 0.1 mm 4 m/S 642 mmHg 60%
21:00 +17°C° 0.1 mm 5 m/S 642 mmHg 64%
22:00 +16°C° 0.4 mm 5 m/S 642 mmHg 68%
23:00 +15°C° 0.4 mm 4 m/S 642 mmHg 73%

23 September, Mittwoch

Zeit Temperatur Niederschläge Wind Luftdruck Luftfeuchtigkeit
00:00 +15°C° 0.4 mm 4 m/S 642 mmHg 77%
01:00 +15°C° 0.2 mm 4 m/S 642 mmHg 77%
02:00 +14°C° 0.2 mm 3 m/S 642 mmHg 77%
03:00 +14°C° 0.2 mm 3 m/S 642 mmHg 77%
04:00 +14°C° 0.2 mm 3 m/S 642 mmHg 78%
05:00 +15°C° 0.2 mm 2 m/S 642 mmHg 79%
06:00 +14°C° 0.2 mm 2 m/S 642 mmHg 80%
07:00 +16°C° 0.1 mm 2 m/S 643 mmHg 74%
08:00 +17°C° 0.1 mm 2 m/S 643 mmHg 68%
09:00 +20°C° 0.1 mm 1 m/S 644 mmHg 61%
10:00 +20°C° 0.1 mm 2 m/S 644 mmHg 58%
11:00 +21°C° 0.1 mm 2 m/S 644 mmHg 54%
12:00 +23°C° 0.1 mm 2 m/S 645 mmHg 50%
13:00 +23°C° 0.1 mm 2 m/S 645 mmHg 50%
14:00 +23°C° 0.1 mm 2 m/S 644 mmHg 50%
15:00 +24°C° 0.1 mm 3 m/S 644 mmHg 50%
16:00 +21°C° 0 mm 3 m/S 644 mmHg 56%
17:00 +19°C° 0 mm 4 m/S 643 mmHg 61%
18:00 +18°C° 0 mm 4 m/S 643 mmHg 67%
19:00 +17°C° 0 mm 4 m/S 643 mmHg 69%
20:00 +15°C° 0 mm 4 m/S 643 mmHg 71%
21:00 +15°C° 0 mm 4 m/S 643 mmHg 73%
22:00 +16°C° 0 mm 3 m/S 643 mmHg 73%
23:00 +14°C° 0 mm 3 m/S 643 mmHg 74%
Mehr zeigen